Location: Bayfield
(43.5596°N, 81.6969°W)
Time: 14:49:11
(UTC-04:00)

BlueWalker 3 - Visible Passes

Search period start: 08 June 2026 00:00
Search period end: 18 June 2026 00:00
Orbit: 447 x 456 km, 53.2° (Epoch: 8 June)

Date Brightness Start Highest point End Pass type
(mag) Time Alt. Az. Time Alt. Az. Time Alt. Az.
8 Jun 1.8 21:51:01 10° NW 21:54:34 74° NE 21:58:00 11° ESE visible
8 Jun 3.9 23:29:26 10° W 23:31:31 15° SW 23:31:37 15° SW visible
9 Jun 3.6 22:51:53 10° W 22:54:33 20° SW 22:55:52 17° SSW visible
10 Jun 3.2 22:14:30 10° WNW 22:17:32 27° SW 22:20:10 12° S visible
11 Jun 2.8 21:37:13 10° WNW 21:40:30 36° SW 21:43:46 10° SSE visible
